{"data":{"norad_id":66404,"intl_designator":"2025-257AA","name":"STARLINK-35691","alt_names":[],"object_type":"PAYLOAD","status":"ACTIVE","operator":null,"country":"US","launch_date":"2025-11-09","launch_site_code":"AFETR","launch_vehicle":null,"mission":null,"orbit_class":"UNKNOWN","rcs_meters":null,"size_class":null,"mass_kg":null,"dimensions":null,"purposes":["comms"],"wikipedia_slug":null,"has_3d_model":false,"image_url":null,"decayed_at":null,"tle_current":{"epoch":"2026-09-20T13:47:29.490432Z","epoch_age_seconds":86971,"freshness":"FRESH","line1":"1 66404U 25257AA  26263.57464688  .00021202  00000+0  63688-3 0  9998","line2":"2 66404  53.1589  27.3737 0000806  77.2406 282.8687 15.34398453 49630","mean_motion":15.34398453,"eccentricity":8.06e-5,"inclination_deg":53.1589,"raan_deg":27.3737,"arg_perigee_deg":77.2406,"mean_anomaly_deg":282.8687,"bstar":0.00063688,"rev_number":4963,"period_min":93.847852699836,"perigee_km":462.15646612702,"apogee_km":463.25921031494,"semimajor_km":6840.844838221,"source":"CELESTRAK","updated_at":"2026-09-21T09:00:35.904507Z"}}}